Location: Moscow
(55.7500°N, 37.5830°E)
Time: 11:35:36
(UTC+03:00)

A-11 Canister half - Pass Details

Date: 09 December 2021
Orbit: 1516 x 1684 km, 47.2° (Epoch: 24 January)

Event Time Altitude Azimuth Distance (km) Brightness Sun altitude
Rises 12:34:24 0° 283° (WNW) 4,867 11.5 11.4°
Reaches altitude 10° 12:38:12 10° 271° (W) 3,901 11.2 11.3°
Maximum altitude 12:45:46 25° 221° (SW) 2,897 11.5 11.2°
Drops below altitude 10° 12:53:25 10° 172° (S) 3,941 13.1 11.1°
Sets 12:57:18 0° 160° (SSE) 4,927 12.8 11.0°
